This is the latest recevied weather packets stored in our database for station/object K7KAZ. If no packets are shown the sender has not sent any weather packets the latest 10 day(s).
| Time | Temp. | Humidity | Pressure | Rain* | Wind** | Luminosity | Snow |
|---|---|---|---|---|---|---|---|
| 1777588895 | 31.67° C | 13% | 1007.8 hPa | 0 mm | - | 596 W/m² | - |
| 1777588591 | 30° C | 14% | 1008.1 hPa | 0 mm | - | 509 W/m² | - |
| 1777588286 | 30.56° C | 14% | 1007.9 hPa | 0 mm | - | 246 W/m² | - |
| 1777587982 | 30° C | 14% | 1008 hPa | 0 mm | - | 196 W/m² | - |
| 1777587678 | 30.56° C | 14% | 1008 hPa | 0 mm | - | 207 W/m² | - |
| 1777587378 | 30.56° C | 14% | 1008.3 hPa | 0 mm | - | 218 W/m² | - |
| 1777587074 | 31.11° C | 14% | 1008.2 hPa | 0 mm | - | 492 W/m² | - |
| 1777586770 | 31.11° C | 14% | 1008.3 hPa | 0 mm | - | 436 W/m² | - |
| 1777586466 | 31.11° C | 14% | 1008.3 hPa | 0 mm | - | 527 W/m² | - |
| 1777586161 | 30.56° C | 14% | 1008.7 hPa | 0 mm | - | 521 W/m² | - |
| 1777585859 | 30.56° C | 14% | 1008.8 hPa | 0 mm | - | 554 W/m² | - |
| 1777585559 | 31.11° C | 14% | 1008.8 hPa | 0 mm | - | 526 W/m² | - |
| 1777585255 | 30.56° C | 14% | 1008.8 hPa | 0 mm | - | 620 W/m² | - |
| 1777584950 | 31.11° C | 14% | 1009 hPa | 0 mm | - | 630 W/m² | - |
| 1777584647 | 30° C | 14% | 1009 hPa | 0 mm | - | 411 W/m² | - |
| 1777584344 | 30.56° C | 14% | 1009.1 hPa | 0 mm | - | 510 W/m² | - |
| 1777584040 | 30.56° C | 14% | 1009.1 hPa | 0 mm | - | 658 W/m² | - |
| 1777583735 | 30° C | 14% | 1009.2 hPa | 0 mm | - | 751 W/m² | - |
| 1777583434 | 30° C | 14% | 1009.4 hPa | 0 mm | - | 695 W/m² | - |
| 1777583133 | 30° C | 14% | 1009.4 hPa | 0 mm | - | 612 W/m² | - |
| 1777582829 | 30° C | 14% | 1009.7 hPa | 0 mm | - | 575 W/m² | - |
| 1777582527 | 30.56° C | 14% | 1009.9 hPa | 0 mm | - | 504 W/m² | - |
| 1777582221 | 30° C | 15% | 1009.6 hPa | 0 mm | - | 695 W/m² | - |
| 1777581919 | 30° C | 14% | 1009.7 hPa | 0 mm | - | 696 W/m² | - |
| 1777581614 | 30.56° C | 14% | 1009.8 hPa | 0 mm | - | 732 W/m² | - |
* Rain latest hour (hover to see other rain measurements)
** Current wind speed in m/s (hover to see current wind gust speed)